GW1508 Weather Reports


time (UTC)temp
C
wind
direction
speed
KPH
gust
KPH
rain 1hr
cm
rain 24hr
cm
rain mn
cm
humidity
%
barometer
mb
20260504215910 0 290 0.0 0.0 0.00 0.00 0.00 92 1020.7
20260504214348 1 290 0.0 0.0 0.00 0.00 0.00 92 1020.7
20260504211351 3 290 0.0 0.0 0.00 0.00 0.00 94 1021.0
20260504204354 3 284 0.0 3.2 0.00 0.00 0.00 93 1021.1
20260504202848 3 317 0.0 0.0 0.00 0.00 0.00 91 1021.0
20260504195852 5 317 0.0 1.6 0.00 0.00 0.00 93 1021.0
20260504194341 6 23 0.0 1.6 0.00 0.00 0.00 93 1021.0
20260504185850 7 65 3.2 9.7 0.00 0.00 0.00 93 1020.7
20260504184343 7 29 1.6 8.0 0.00 0.00 0.00 92 1020.6
20260504181349 7 242 1.6 11.3 0.00 0.00 0.00 88 1020.7
20260504174352 8 13 0.0 9.7 0.00 0.00 0.00 81 1020.8
20260504171355 8 42 4.8 16.1 0.00 0.00 0.00 80 1020.9
20260504081349 10 74 1.6 12.9 0.00 0.00 0.00 71 1022.0
20260504044350 -5 35 0.0 0.0 0.00 0.00 0.00 90 1022.4
20260504042839 -5 35 0.0 0.0 0.00 0.00 0.00 90 1022.4
20260504035847 -4 35 0.0 0.0 0.00 0.00 0.00 88 1022.4
20260504032851 -3 35 0.0 0.0 0.00 0.00 0.00 87 1022.5
20260504031341 -2 35 0.0 0.0 0.00 0.00 0.00 86 1022.7
20260504024344 0 35 0.0 0.0 0.00 0.00 0.00 85 1023.0
20260504021352 1 35 0.0 0.0 0.00 0.00 0.00 85 1023.1
20260504014352 3 35 0.0 0.0 0.00 0.00 0.00 82 1023.3
20260504011348 5 35 0.0 1.6 0.00 0.00 0.00 77 1023.5
20260504005841 6 35 0.0 3.2 0.00 0.00 0.00 73 1023.7
20260504002847 5 104 1.6 12.9 0.00 0.00 0.00 80 1024.0
20260504001343 6 26 0.0 3.2 0.00 0.00 0.00 75 1024.6
20260503234348 4 313 0.0 1.6 0.00 0.00 0.00 82 1024.9
20260503232837 1 38 0.0 3.2 0.00 0.00 0.00 91 1025.2
20260503225846 2 41 0.0 0.0 0.00 0.00 0.00 89 1025.4
20260503222848 -2 40 0.0 0.0 0.00 0.00 0.00 93 1025.8